User: anonymous   Login
Location: Unspecified
(0.0000°N, 0.0000°E)
Time: 17:31:36
(UTC+00:00)
Language:

Cosmos 1383 - Orbit

View from above orbital plane
View from above orbital plane
View from above satellite
View from above satellite

Ground track
Ground track

The orbit data is extracted from the following two-line orbital elements,

1 13301U 82066A   18018.84493793  .00000039  00000-0  27504-4 0  9999
2 13301  82.9327 108.5990 0028721  93.2803  45.8375 13.68660845775848
Epoch (UTC): 18 January 2018 20:16:42
Eccentricity: 0.0028721
inclination: 82.9327°
perigee height: 983 km
apogee height: 1025 km
right ascension of ascending node: 108.5990°
argument of perigee: 93.2803°
revolutions per day: 13.68660845
mean anomaly at epoch: 45.8375°
orbit number at epoch: 77584

The dashed part of the orbit path shows where the satellite is in the earth's shadow,  

DLR